Year,Month,Day,Hour,Minute,Value (Times are PST for temperature in C)
2017,04,07,00,00,10.30
2017,04,07,00,01,10.30
2017,04,07,00,02,10.40
2017,04,07,00,03,10.40
2017,04,07,00,04,10.40
2017,04,07,00,05,10.40
2017,04,07,00,06,10.40
2017,04,07,00,07,10.40
2017,04,07,00,08,10.40
2017,04,07,00,09,10.40
2017,04,07,00,10,10.40
2017,04,07,00,11,10.40
2017,04,07,00,12,10.40
2017,04,07,00,13,10.40
2017,04,07,00,14,10.40
2017,04,07,00,15,10.40
2017,04,07,00,16,10.40
2017,04,07,00,17,10.40
2017,04,07,00,18,10.40
2017,04,07,00,19,10.40
2017,04,07,00,20,10.40
2017,04,07,00,21,10.40
2017,04,07,00,22,10.40
2017,04,07,00,23,10.50
2017,04,07,00,24,10.50
2017,04,07,00,25,10.50
2017,04,07,00,26,10.50
2017,04,07,00,27,10.50
2017,04,07,00,28,10.50
2017,04,07,00,29,10.50
2017,04,07,00,30,10.50
2017,04,07,00,31,10.60
2017,04,07,00,32,10.60
2017,04,07,00,33,10.60
2017,04,07,00,34,10.60
2017,04,07,00,35,10.50
2017,04,07,00,36,10.50
2017,04,07,00,37,10.50
2017,04,07,00,38,10.60
2017,04,07,00,39,10.60
2017,04,07,00,40,10.60
2017,04,07,00,41,10.70
2017,04,07,00,42,10.70
2017,04,07,00,43,10.70
2017,04,07,00,44,10.70
2017,04,07,00,45,10.70
2017,04,07,00,46,10.70
2017,04,07,00,47,10.70
2017,04,07,00,48,10.60
2017,04,07,00,49,10.60
2017,04,07,00,50,10.60
2017,04,07,00,51,10.60
2017,04,07,00,52,10.60
2017,04,07,00,53,10.50
2017,04,07,00,54,10.50
2017,04,07,00,55,10.40
2017,04,07,00,56,10.40
2017,04,07,00,57,10.40
2017,04,07,00,58,10.30
2017,04,07,00,59,10.30
2017,04,07,01,00,10.30
2017,04,07,01,01,10.30
2017,04,07,01,02,10.30
2017,04,07,01,03,10.20
2017,04,07,01,04,10.20
2017,04,07,01,05,10.20
2017,04,07,01,06,10.20
2017,04,07,01,07,10.20
2017,04,07,01,08,10.20
2017,04,07,01,09,10.20
2017,04,07,01,10,10.20
2017,04,07,01,11,10.20
2017,04,07,01,12,10.20
2017,04,07,01,13,10.20
2017,04,07,01,14,10.20
2017,04,07,01,15,10.20
2017,04,07,01,16,10.20
2017,04,07,01,17,10.20
2017,04,07,01,18,10.20
2017,04,07,01,19,10.20
2017,04,07,01,20,10.20
2017,04,07,01,21,10.20
2017,04,07,01,22,10.20
2017,04,07,01,23,10.30
2017,04,07,01,24,10.30
2017,04,07,01,25,10.40
2017,04,07,01,26,10.40
2017,04,07,01,27,10.50
2017,04,07,01,28,10.50
2017,04,07,01,29,10.60
2017,04,07,01,30,10.60
2017,04,07,01,31,10.60
2017,04,07,01,32,10.60
2017,04,07,01,33,10.60
2017,04,07,01,34,10.60
2017,04,07,01,35,10.60
2017,04,07,01,36,10.60
2017,04,07,01,37,10.60
2017,04,07,01,38,10.60
2017,04,07,01,39,10.60
2017,04,07,01,40,10.60
2017,04,07,01,41,10.60
2017,04,07,01,42,10.60
2017,04,07,01,43,10.60
2017,04,07,01,44,10.60
2017,04,07,01,45,10.60
2017,04,07,01,46,10.70
2017,04,07,01,47,10.70
2017,04,07,01,48,10.70
2017,04,07,01,49,10.70
2017,04,07,01,50,10.70
2017,04,07,01,51,10.80
2017,04,07,01,52,10.90
2017,04,07,01,53,10.90
2017,04,07,01,54,11.00
2017,04,07,01,55,11.00
2017,04,07,01,56,11.10
2017,04,07,01,57,11.10
2017,04,07,01,58,11.10
2017,04,07,01,59,11.10
2017,04,07,02,00,11.10
2017,04,07,02,01,11.10
2017,04,07,02,02,11.10
2017,04,07,02,03,11.20
2017,04,07,02,04,11.10
2017,04,07,02,05,11.10
2017,04,07,02,06,11.10
2017,04,07,02,07,11.00
2017,04,07,02,08,11.00
2017,04,07,02,09,10.90
2017,04,07,02,10,10.90
2017,04,07,02,11,10.80
2017,04,07,02,12,10.80
2017,04,07,02,13,10.80
2017,04,07,02,14,10.80
2017,04,07,02,15,10.70
2017,04,07,02,16,10.70
2017,04,07,02,17,10.70
2017,04,07,02,18,10.70
2017,04,07,02,19,10.70
2017,04,07,02,20,10.70
2017,04,07,02,21,10.70
2017,04,07,02,22,10.70
2017,04,07,02,23,10.80
2017,04,07,02,24,10.80
2017,04,07,02,25,10.80
2017,04,07,02,26,10.80
2017,04,07,02,27,10.80
2017,04,07,02,28,10.80
2017,04,07,02,29,10.80
2017,04,07,02,30,10.90
2017,04,07,02,31,10.90
2017,04,07,02,32,10.90
2017,04,07,02,33,10.80
2017,04,07,02,34,10.80
2017,04,07,02,35,10.80
2017,04,07,02,36,10.80
2017,04,07,02,37,10.80
2017,04,07,02,38,10.80
2017,04,07,02,39,10.70
2017,04,07,02,40,10.70
2017,04,07,02,41,10.60
2017,04,07,02,42,10.50
2017,04,07,02,43,10.50
2017,04,07,02,44,10.30
2017,04,07,02,45,10.30
2017,04,07,02,46,10.20
2017,04,07,02,47,10.10
2017,04,07,02,48,10.00
2017,04,07,02,49,9.90
2017,04,07,02,50,9.90
2017,04,07,02,51,9.80
2017,04,07,02,52,9.80
2017,04,07,02,53,9.80
2017,04,07,02,54,9.80
2017,04,07,02,55,9.80
2017,04,07,02,56,9.70
2017,04,07,02,57,9.70
2017,04,07,02,58,9.70
2017,04,07,02,59,9.70
2017,04,07,03,00,9.70
2017,04,07,03,01,9.70
2017,04,07,03,02,9.70
2017,04,07,03,03,9.60
2017,04,07,03,04,9.60
2017,04,07,03,05,9.60
2017,04,07,03,06,9.60
2017,04,07,03,07,9.60
2017,04,07,03,08,9.60
2017,04,07,03,09,9.60
2017,04,07,03,10,9.60
2017,04,07,03,11,9.60
2017,04,07,03,12,9.60
2017,04,07,03,13,9.60
2017,04,07,03,14,9.60
2017,04,07,03,15,9.60
2017,04,07,03,16,9.60
2017,04,07,03,17,9.60
2017,04,07,03,18,9.60
2017,04,07,03,19,9.60
2017,04,07,03,20,9.60
2017,04,07,03,21,9.60
2017,04,07,03,22,9.60
2017,04,07,03,23,9.60
2017,04,07,03,24,9.60
2017,04,07,03,25,9.50
2017,04,07,03,26,9.50
2017,04,07,03,27,9.40
2017,04,07,03,28,9.30
2017,04,07,03,29,9.30
2017,04,07,03,30,9.20
2017,04,07,03,31,9.20
2017,04,07,03,32,9.20
2017,04,07,03,33,9.20
2017,04,07,03,34,9.10
2017,04,07,03,35,9.10
2017,04,07,03,36,9.10
2017,04,07,03,37,9.10
2017,04,07,03,38,9.10
2017,04,07,03,39,9.10
2017,04,07,03,40,9.10
2017,04,07,03,41,9.10
2017,04,07,03,42,9.10
2017,04,07,03,43,9.10
2017,04,07,03,44,9.10
2017,04,07,03,45,9.10
2017,04,07,03,46,9.10
2017,04,07,03,47,9.20
2017,04,07,03,48,9.20
2017,04,07,03,49,9.20
2017,04,07,03,50,9.20
2017,04,07,03,51,9.20
2017,04,07,03,52,9.10
2017,04,07,03,53,9.10
2017,04,07,03,54,9.20
2017,04,07,03,55,9.20
2017,04,07,03,56,9.20
2017,04,07,03,57,9.20
2017,04,07,03,58,9.20
2017,04,07,03,59,9.20
2017,04,07,04,00,9.10
2017,04,07,04,01,9.10
2017,04,07,04,02,9.00
2017,04,07,04,03,8.90
2017,04,07,04,04,9.00
2017,04,07,04,05,9.00
2017,04,07,04,06,9.00
2017,04,07,04,07,9.10
2017,04,07,04,08,9.10
2017,04,07,04,09,9.10
2017,04,07,04,10,9.10
2017,04,07,04,11,9.10
2017,04,07,04,12,9.10
2017,04,07,04,13,9.10
2017,04,07,04,14,9.10
2017,04,07,04,15,9.00
2017,04,07,04,16,9.00
2017,04,07,04,17,8.90
2017,04,07,04,18,8.90
2017,04,07,04,19,8.80
2017,04,07,04,20,8.70
2017,04,07,04,21,8.60
2017,04,07,04,22,8.50
2017,04,07,04,23,8.50
2017,04,07,04,24,8.40
2017,04,07,04,25,8.40
2017,04,07,04,26,8.40
2017,04,07,04,27,8.30
2017,04,07,04,28,8.30
2017,04,07,04,29,8.30
2017,04,07,04,30,8.30
2017,04,07,04,31,8.20
2017,04,07,04,32,8.20
2017,04,07,04,33,8.20
2017,04,07,04,34,8.20
2017,04,07,04,35,8.20
2017,04,07,04,36,8.20
2017,04,07,04,37,8.20
2017,04,07,04,38,8.20
2017,04,07,04,39,8.30
2017,04,07,04,40,8.30
2017,04,07,04,41,8.30
2017,04,07,04,42,8.30
2017,04,07,04,43,8.30
2017,04,07,04,44,8.30
2017,04,07,04,45,8.30
2017,04,07,04,46,8.30
2017,04,07,04,47,8.30
2017,04,07,04,48,8.30
2017,04,07,04,49,8.20
2017,04,07,04,50,8.20
2017,04,07,04,51,8.10
2017,04,07,04,52,8.10
2017,04,07,04,53,8.10
2017,04,07,04,54,8.00
2017,04,07,04,55,8.00
2017,04,07,04,56,7.90
2017,04,07,04,57,7.90
2017,04,07,04,58,7.80
2017,04,07,04,59,7.80
2017,04,07,05,00,7.80
2017,04,07,05,01,7.80
2017,04,07,05,02,7.80
2017,04,07,05,03,7.70
2017,04,07,05,04,7.80
2017,04,07,05,05,7.70
2017,04,07,05,06,7.70
2017,04,07,05,07,7.70
2017,04,07,05,08,7.70
2017,04,07,05,09,7.70
2017,04,07,05,10,7.70
2017,04,07,05,11,7.70
2017,04,07,05,12,7.70
2017,04,07,05,13,7.70
2017,04,07,05,14,7.70
2017,04,07,05,15,7.70
2017,04,07,05,16,7.70
2017,04,07,05,17,7.70
2017,04,07,05,18,7.70
2017,04,07,05,19,7.70
2017,04,07,05,20,7.70
2017,04,07,05,21,7.70
2017,04,07,05,22,7.60
2017,04,07,05,23,7.60
2017,04,07,05,24,7.60
2017,04,07,05,25,7.60
2017,04,07,05,26,7.60
2017,04,07,05,27,7.60
2017,04,07,05,28,7.60
2017,04,07,05,29,7.60
2017,04,07,05,30,7.60
2017,04,07,05,31,7.60
2017,04,07,05,32,7.60
2017,04,07,05,33,7.60
2017,04,07,05,34,7.60
2017,04,07,05,35,7.60
2017,04,07,05,36,7.60
2017,04,07,05,37,7.60
2017,04,07,05,38,7.60
2017,04,07,05,39,7.60
2017,04,07,05,40,7.60
2017,04,07,05,41,7.60
2017,04,07,05,42,7.60
2017,04,07,05,43,7.60
2017,04,07,05,44,7.60
2017,04,07,05,45,7.60
2017,04,07,05,46,7.60
2017,04,07,05,47,7.60
2017,04,07,05,48,7.60
2017,04,07,05,49,7.60
2017,04,07,05,50,7.60
2017,04,07,05,51,7.60
2017,04,07,05,52,7.60
2017,04,07,05,53,7.60
2017,04,07,05,54,7.60
2017,04,07,05,55,7.60
2017,04,07,05,56,7.60
2017,04,07,05,57,7.60
2017,04,07,05,58,7.60
2017,04,07,05,59,7.60
2017,04,07,06,00,7.60
2017,04,07,06,01,7.60
2017,04,07,06,02,7.50
2017,04,07,06,03,7.50
2017,04,07,06,04,7.50
2017,04,07,06,05,7.50
2017,04,07,06,06,7.50
2017,04,07,06,07,7.60
2017,04,07,06,08,7.60
2017,04,07,06,09,7.60
2017,04,07,06,10,7.60
2017,04,07,06,11,7.70
2017,04,07,06,12,7.70
2017,04,07,06,13,7.70
2017,04,07,06,14,7.80
2017,04,07,06,15,7.80
2017,04,07,06,16,7.80
2017,04,07,06,17,7.80
2017,04,07,06,18,7.80
2017,04,07,06,19,7.80
2017,04,07,06,20,7.80
2017,04,07,06,21,7.80
2017,04,07,06,22,7.80
2017,04,07,06,23,7.80
2017,04,07,06,24,7.80
2017,04,07,06,25,7.80
2017,04,07,06,26,7.80
2017,04,07,06,27,7.80
2017,04,07,06,28,7.80
2017,04,07,06,29,7.80
2017,04,07,06,30,7.80
2017,04,07,06,31,7.80
2017,04,07,06,32,7.80
2017,04,07,06,33,7.80
2017,04,07,06,34,7.80
2017,04,07,06,35,7.80
2017,04,07,06,36,7.80
2017,04,07,06,37,7.80
2017,04,07,06,38,7.80
2017,04,07,06,39,7.80
2017,04,07,06,40,7.70
2017,04,07,06,41,7.70
2017,04,07,06,42,7.70
2017,04,07,06,43,7.70
2017,04,07,06,44,7.70
2017,04,07,06,45,7.70
2017,04,07,06,46,7.60
2017,04,07,06,47,7.60
2017,04,07,06,48,7.60
2017,04,07,06,49,7.60
2017,04,07,06,50,7.60
2017,04,07,06,51,7.60
2017,04,07,06,52,7.60
2017,04,07,06,53,7.60
2017,04,07,06,54,7.60
2017,04,07,06,55,7.60
2017,04,07,06,56,7.60
2017,04,07,06,57,7.60
2017,04,07,06,58,7.60
2017,04,07,06,59,7.60
2017,04,07,07,00,7.60
2017,04,07,07,01,7.60
2017,04,07,07,02,7.60
2017,04,07,07,03,7.60
2017,04,07,07,04,7.60
2017,04,07,07,05,7.60
2017,04,07,07,06,7.70
2017,04,07,07,07,7.70
2017,04,07,07,08,7.70
2017,04,07,07,09,7.70
2017,04,07,07,10,7.80
2017,04,07,07,11,7.80
2017,04,07,07,12,7.80
2017,04,07,07,13,7.80
2017,04,07,07,14,7.80
2017,04,07,07,15,7.80
2017,04,07,07,16,7.80
2017,04,07,07,17,7.80
2017,04,07,07,18,7.80
2017,04,07,07,19,7.90
2017,04,07,07,20,7.90
2017,04,07,07,21,7.90
2017,04,07,07,22,7.90
2017,04,07,07,23,7.90
2017,04,07,07,24,7.90
2017,04,07,07,25,7.90
2017,04,07,07,26,7.90
2017,04,07,07,27,8.00
2017,04,07,07,28,8.00
2017,04,07,07,29,8.00
2017,04,07,07,30,8.00
2017,04,07,07,31,8.00
2017,04,07,07,32,8.00
2017,04,07,07,33,8.00
2017,04,07,07,34,8.10
2017,04,07,07,35,8.10
2017,04,07,07,36,8.10
2017,04,07,07,37,8.10
2017,04,07,07,38,8.10
2017,04,07,07,39,8.20
2017,04,07,07,40,8.20
2017,04,07,07,41,8.30
2017,04,07,07,42,8.30
2017,04,07,07,43,8.30
2017,04,07,07,44,8.40
2017,04,07,07,45,8.40
2017,04,07,07,46,8.50
2017,04,07,07,47,8.50
2017,04,07,07,48,8.50
2017,04,07,07,49,8.50
2017,04,07,07,50,8.50
2017,04,07,07,51,8.50
2017,04,07,07,52,8.50
2017,04,07,07,53,8.60
2017,04,07,07,54,8.60
2017,04,07,07,55,8.60
2017,04,07,07,56,8.50
2017,04,07,07,57,8.50
2017,04,07,07,58,8.50
2017,04,07,07,59,8.50
2017,04,07,08,00,8.50
2017,04,07,08,01,8.50
2017,04,07,08,02,8.50
2017,04,07,08,03,8.50
2017,04,07,08,04,8.50
2017,04,07,08,05,8.40
2017,04,07,08,06,8.40
2017,04,07,08,07,8.40
2017,04,07,08,08,8.40
2017,04,07,08,09,8.40
2017,04,07,08,10,8.40
2017,04,07,08,11,8.40
2017,04,07,08,12,8.40
2017,04,07,08,13,8.40
2017,04,07,08,14,8.50
2017,04,07,08,15,8.50
2017,04,07,08,16,8.60
2017,04,07,08,17,8.60
2017,04,07,08,18,8.60
2017,04,07,08,19,8.60
2017,04,07,08,20,8.60
2017,04,07,08,21,8.70
2017,04,07,08,22,8.70
2017,04,07,08,23,8.70
2017,04,07,08,24,8.70
2017,04,07,08,25,8.70
2017,04,07,08,26,8.70
2017,04,07,08,27,8.80
2017,04,07,08,28,8.80
2017,04,07,08,29,8.80
2017,04,07,08,30,8.80
2017,04,07,08,31,8.90
2017,04,07,08,32,8.90
2017,04,07,08,33,8.90
2017,04,07,08,34,8.90
2017,04,07,08,35,8.90
2017,04,07,08,36,8.90
2017,04,07,08,37,8.90
2017,04,07,08,38,8.90
2017,04,07,08,39,9.00
2017,04,07,08,40,9.00
2017,04,07,08,41,9.00
2017,04,07,08,42,9.10
2017,04,07,08,43,9.10
2017,04,07,08,44,9.10
2017,04,07,08,45,9.20
2017,04,07,08,46,9.30
2017,04,07,08,47,9.30
2017,04,07,08,48,9.40
2017,04,07,08,49,9.40
2017,04,07,08,50,9.50
2017,04,07,08,51,9.50
2017,04,07,08,52,9.60
2017,04,07,08,53,9.60
2017,04,07,08,54,9.70
2017,04,07,08,55,9.70
2017,04,07,08,56,9.70
2017,04,07,08,57,9.70
2017,04,07,08,58,9.70
2017,04,07,08,59,9.70
2017,04,07,09,00,9.70
2017,04,07,09,01,9.70
2017,04,07,09,02,9.70
2017,04,07,09,03,9.70
2017,04,07,09,04,9.70
2017,04,07,09,05,9.70
2017,04,07,09,06,9.70
2017,04,07,09,07,9.60
2017,04,07,09,08,9.60
2017,04,07,09,09,9.60
2017,04,07,09,10,9.60
2017,04,07,09,11,9.60
2017,04,07,09,12,9.60
2017,04,07,09,13,9.60
2017,04,07,09,14,9.60
2017,04,07,09,15,9.60
2017,04,07,09,16,9.70
2017,04,07,09,17,9.70
2017,04,07,09,18,9.70
2017,04,07,09,19,9.70
2017,04,07,09,20,9.70
2017,04,07,09,21,9.70
2017,04,07,09,22,9.70
2017,04,07,09,23,9.70
2017,04,07,09,24,9.70
2017,04,07,09,25,9.70
2017,04,07,09,26,9.70
2017,04,07,09,27,9.70
2017,04,07,09,28,9.70
2017,04,07,09,29,9.70
2017,04,07,09,30,9.60
2017,04,07,09,31,9.60
2017,04,07,09,32,9.60
2017,04,07,09,33,9.50
2017,04,07,09,34,9.50
2017,04,07,09,35,9.40
2017,04,07,09,36,9.40
2017,04,07,09,37,9.40
2017,04,07,09,38,9.40
2017,04,07,09,39,9.40
2017,04,07,09,40,9.30
2017,04,07,09,41,9.30
2017,04,07,09,42,9.30
2017,04,07,09,43,9.30
2017,04,07,09,44,9.30
2017,04,07,09,45,9.20
2017,04,07,09,46,9.20
2017,04,07,09,47,9.20
2017,04,07,09,48,9.10
2017,04,07,09,49,9.10
2017,04,07,09,50,9.10
2017,04,07,09,51,9.10
2017,04,07,09,52,9.10
2017,04,07,09,53,9.10
2017,04,07,09,54,9.10
2017,04,07,09,55,9.10
2017,04,07,09,56,9.10
2017,04,07,09,57,9.10
2017,04,07,09,58,9.10
2017,04,07,09,59,9.20
2017,04,07,10,00,9.20
2017,04,07,10,01,9.20
2017,04,07,10,02,9.20
2017,04,07,10,03,9.20
2017,04,07,10,04,9.20
2017,04,07,10,05,9.20
2017,04,07,10,06,9.20
2017,04,07,10,07,9.20
2017,04,07,10,08,9.20
2017,04,07,10,09,9.20
2017,04,07,10,10,9.20
2017,04,07,10,11,9.20
2017,04,07,10,12,9.20
2017,04,07,10,13,9.20
2017,04,07,10,14,9.20
2017,04,07,10,15,9.20
2017,04,07,10,16,9.20
2017,04,07,10,17,9.20
2017,04,07,10,18,9.30
2017,04,07,10,19,9.30
2017,04,07,10,20,9.30
2017,04,07,10,21,9.30
2017,04,07,10,22,9.40
2017,04,07,10,23,9.40
2017,04,07,10,24,9.60
2017,04,07,10,25,9.70
2017,04,07,10,26,9.80
2017,04,07,10,27,9.90
2017,04,07,10,28,10.00
2017,04,07,10,29,10.10
2017,04,07,10,30,10.20
2017,04,07,10,31,10.20
2017,04,07,10,32,10.30
2017,04,07,10,33,10.30
2017,04,07,10,34,10.30
2017,04,07,10,35,10.40
2017,04,07,10,36,10.40
2017,04,07,10,37,10.40
2017,04,07,10,38,10.50
2017,04,07,10,39,10.50
2017,04,07,10,40,10.60
2017,04,07,10,41,10.60
2017,04,07,10,42,10.60
2017,04,07,10,43,10.60
2017,04,07,10,44,10.70
2017,04,07,10,45,10.70
2017,04,07,10,46,10.70
2017,04,07,10,47,10.70
2017,04,07,10,48,10.80
2017,04,07,10,49,10.80
2017,04,07,10,50,10.90
2017,04,07,10,51,11.00
2017,04,07,10,52,11.10
2017,04,07,10,53,11.20
2017,04,07,10,54,11.30
2017,04,07,10,55,11.40
2017,04,07,10,56,11.40
2017,04,07,10,57,11.50
2017,04,07,10,58,11.60
2017,04,07,10,59,11.60
2017,04,07,11,00,11.60
2017,04,07,11,01,11.60
2017,04,07,11,02,11.60
2017,04,07,11,03,11.60
2017,04,07,11,04,11.60
2017,04,07,11,05,11.50
2017,04,07,11,06,11.40
2017,04,07,11,07,11.40
2017,04,07,11,08,11.40
2017,04,07,11,09,11.40
2017,04,07,11,10,11.50
2017,04,07,11,11,11.50
2017,04,07,11,12,11.60
2017,04,07,11,13,11.60
2017,04,07,11,14,11.60
2017,04,07,11,15,11.50
2017,04,07,11,16,11.50
2017,04,07,11,17,11.50
2017,04,07,11,18,11.60
2017,04,07,11,19,11.60
2017,04,07,11,20,11.60
2017,04,07,11,21,11.60
2017,04,07,11,22,11.60
2017,04,07,11,23,11.60
2017,04,07,11,24,11.60
2017,04,07,11,25,11.60
2017,04,07,11,26,11.60
2017,04,07,11,27,11.60
2017,04,07,11,28,11.70
2017,04,07,11,29,11.70
2017,04,07,11,30,11.70
2017,04,07,11,31,11.70
2017,04,07,11,32,11.70
2017,04,07,11,33,11.70
2017,04,07,11,34,11.70
2017,04,07,11,35,11.70
2017,04,07,11,36,11.80
2017,04,07,11,37,11.80
2017,04,07,11,38,11.70
2017,04,07,11,39,11.70
2017,04,07,11,40,11.70
2017,04,07,11,41,11.70
2017,04,07,11,42,11.60
2017,04,07,11,43,11.60
2017,04,07,11,44,11.60
2017,04,07,11,45,11.60
2017,04,07,11,46,11.60
2017,04,07,11,47,11.60
2017,04,07,11,48,11.60
2017,04,07,11,49,11.50
2017,04,07,11,50,11.50
2017,04,07,11,51,11.60
2017,04,07,11,52,11.50
2017,04,07,11,53,11.50
2017,04,07,11,54,11.50
2017,04,07,11,55,11.50
2017,04,07,11,56,11.50
2017,04,07,11,57,11.50
2017,04,07,11,58,11.50
2017,04,07,11,59,11.50
2017,04,07,12,00,11.50
2017,04,07,12,01,11.50
2017,04,07,12,02,11.50
2017,04,07,12,03,11.40
2017,04,07,12,04,11.40
2017,04,07,12,05,11.40
2017,04,07,12,06,11.40
2017,04,07,12,07,11.30
2017,04,07,12,08,11.30
2017,04,07,12,09,11.30
2017,04,07,12,10,11.30
2017,04,07,12,11,11.30
2017,04,07,12,12,11.30
2017,04,07,12,13,11.30
2017,04,07,12,14,11.30
2017,04,07,12,15,11.30
2017,04,07,12,16,11.30
2017,04,07,12,17,11.30
2017,04,07,12,18,11.30
2017,04,07,12,19,11.30
2017,04,07,12,20,11.30
2017,04,07,12,21,11.30
2017,04,07,12,22,11.30
2017,04,07,12,23,11.30
2017,04,07,12,24,11.40
2017,04,07,12,25,11.40
2017,04,07,12,26,11.40
2017,04,07,12,27,11.40
2017,04,07,12,28,11.40
2017,04,07,12,29,11.50
2017,04,07,12,30,11.50
2017,04,07,12,31,11.50
2017,04,07,12,32,11.60
2017,04,07,12,33,11.60
2017,04,07,12,34,11.60
2017,04,07,12,35,11.70
2017,04,07,12,36,11.70
2017,04,07,12,37,11.70
2017,04,07,12,38,11.70
2017,04,07,12,39,11.80
2017,04,07,12,40,11.80
2017,04,07,12,41,11.80
2017,04,07,12,42,11.80
2017,04,07,12,43,11.80
2017,04,07,12,44,11.80
2017,04,07,12,45,11.80
2017,04,07,12,46,11.80
2017,04,07,12,47,11.80
2017,04,07,12,48,11.90
2017,04,07,12,49,11.90
2017,04,07,12,50,11.90
2017,04,07,12,51,11.90
2017,04,07,12,52,12.00
2017,04,07,12,53,12.00
2017,04,07,12,54,12.00
2017,04,07,12,55,12.00
2017,04,07,12,56,12.00
2017,04,07,12,57,12.00
2017,04,07,12,58,12.00
2017,04,07,12,59,12.00
2017,04,07,13,00,12.10
2017,04,07,13,01,12.10
2017,04,07,13,02,12.10
2017,04,07,13,03,12.10
2017,04,07,13,04,12.10
2017,04,07,13,05,12.20
2017,04,07,13,06,12.10
2017,04,07,13,07,12.10
2017,04,07,13,08,12.10
2017,04,07,13,09,12.10
2017,04,07,13,10,12.10
2017,04,07,13,11,12.20
2017,04,07,13,12,12.20
2017,04,07,13,13,12.20
2017,04,07,13,14,12.20
2017,04,07,13,15,12.30
2017,04,07,13,16,12.30
2017,04,07,13,17,12.30
2017,04,07,13,18,12.40
2017,04,07,13,19,12.40
2017,04,07,13,20,12.40
2017,04,07,13,21,12.40
2017,04,07,13,22,12.50
2017,04,07,13,23,12.50
2017,04,07,13,24,12.50
2017,04,07,13,25,12.60
2017,04,07,13,26,12.60
2017,04,07,13,27,12.60
2017,04,07,13,28,12.50
2017,04,07,13,29,12.50
2017,04,07,13,30,12.50
2017,04,07,13,31,12.50
2017,04,07,13,32,12.40
2017,04,07,13,33,12.40
2017,04,07,13,34,12.40
2017,04,07,13,35,12.40
2017,04,07,13,36,12.50
2017,04,07,13,37,12.50
2017,04,07,13,38,12.50
2017,04,07,13,39,12.50
2017,04,07,13,40,12.60
2017,04,07,13,41,12.60
2017,04,07,13,42,12.60
2017,04,07,13,43,12.60
2017,04,07,13,44,12.60
2017,04,07,13,45,12.60
2017,04,07,13,46,12.60
2017,04,07,13,47,12.60
2017,04,07,13,48,12.60
2017,04,07,13,49,12.50
2017,04,07,13,50,12.50
2017,04,07,13,51,12.50
2017,04,07,13,52,12.50
2017,04,07,13,53,12.50
2017,04,07,13,54,12.50
2017,04,07,13,55,12.50
2017,04,07,13,56,12.50
2017,04,07,13,57,12.50
2017,04,07,13,58,12.50
2017,04,07,13,59,12.50
2017,04,07,14,00,12.50
2017,04,07,14,01,12.40
2017,04,07,14,02,12.40
2017,04,07,14,03,12.40
2017,04,07,14,04,12.40
2017,04,07,14,05,12.40
2017,04,07,14,06,12.30
2017,04,07,14,07,12.30
2017,04,07,14,08,12.20
2017,04,07,14,09,12.20
2017,04,07,14,10,12.20
2017,04,07,14,11,12.20
2017,04,07,14,12,12.20
2017,04,07,14,13,12.20
2017,04,07,14,14,12.20
2017,04,07,14,15,12.20
2017,04,07,14,16,12.30
2017,04,07,14,17,12.30
2017,04,07,14,18,12.30
2017,04,07,14,19,12.30
2017,04,07,14,20,12.30
2017,04,07,14,21,12.30
2017,04,07,14,22,12.30
2017,04,07,14,23,12.30
2017,04,07,14,24,12.30
2017,04,07,14,25,12.30
2017,04,07,14,26,12.30
2017,04,07,14,27,12.30
2017,04,07,14,28,12.30
2017,04,07,14,29,12.30
2017,04,07,14,30,12.30
2017,04,07,14,31,12.20
2017,04,07,14,32,12.20
2017,04,07,14,33,12.20
2017,04,07,14,34,12.20
2017,04,07,14,35,12.20
2017,04,07,14,36,12.20
2017,04,07,14,37,12.20
2017,04,07,14,38,12.20
2017,04,07,14,39,12.30
2017,04,07,14,40,12.30
2017,04,07,14,41,12.30
2017,04,07,14,42,12.40
2017,04,07,14,43,12.40
2017,04,07,14,44,12.40
2017,04,07,14,45,12.50
2017,04,07,14,46,12.50
2017,04,07,14,47,12.50
2017,04,07,14,48,12.60
2017,04,07,14,49,12.60
2017,04,07,14,50,12.70
2017,04,07,14,51,12.70
2017,04,07,14,52,12.70
2017,04,07,14,53,12.70
2017,04,07,14,54,12.70
2017,04,07,14,55,12.70
2017,04,07,14,56,12.70
2017,04,07,14,57,12.70
2017,04,07,14,58,12.70
2017,04,07,14,59,12.60
2017,04,07,15,00,12.60
2017,04,07,15,01,12.50
2017,04,07,15,02,12.50
2017,04,07,15,03,12.50
2017,04,07,15,04,12.40
2017,04,07,15,05,12.40
2017,04,07,15,06,12.40
2017,04,07,15,07,12.30
2017,04,07,15,08,12.30
2017,04,07,15,09,12.30
2017,04,07,15,10,12.30
2017,04,07,15,11,12.30
2017,04,07,15,12,12.30
2017,04,07,15,13,12.30
2017,04,07,15,14,12.30
2017,04,07,15,15,12.30
2017,04,07,15,16,12.30
2017,04,07,15,17,12.30
2017,04,07,15,18,12.40
2017,04,07,15,19,12.40
2017,04,07,15,20,12.40
2017,04,07,15,21,12.40
2017,04,07,15,22,12.40
2017,04,07,15,23,12.40
2017,04,07,15,24,12.40
2017,04,07,15,25,12.40
2017,04,07,15,26,12.40
2017,04,07,15,27,12.40
2017,04,07,15,28,12.40
2017,04,07,15,29,12.40
2017,04,07,15,30,12.30
2017,04,07,15,31,12.30
2017,04,07,15,32,12.30
2017,04,07,15,33,12.30
2017,04,07,15,34,12.40
2017,04,07,15,35,12.40
2017,04,07,15,36,12.40
2017,04,07,15,37,12.40
2017,04,07,15,38,12.40
2017,04,07,15,39,12.40
2017,04,07,15,40,12.40
2017,04,07,15,41,12.40
2017,04,07,15,42,12.40
2017,04,07,15,43,12.40
2017,04,07,15,44,12.40
2017,04,07,15,45,12.30
2017,04,07,15,46,12.30
2017,04,07,15,47,12.30
2017,04,07,15,48,12.30
2017,04,07,15,49,12.30
2017,04,07,15,50,12.30
2017,04,07,15,51,12.30
2017,04,07,15,52,12.30
2017,04,07,15,53,12.30
2017,04,07,15,54,12.20
2017,04,07,15,55,12.20
2017,04,07,15,56,12.20
2017,04,07,15,57,12.20
2017,04,07,15,58,12.20
2017,04,07,15,59,12.20
2017,04,07,16,00,12.20
2017,04,07,16,01,12.30
2017,04,07,16,02,12.30
2017,04,07,16,03,12.30
2017,04,07,16,04,12.30
2017,04,07,16,05,12.30
2017,04,07,16,06,12.30
2017,04,07,16,07,12.20
2017,04,07,16,08,12.20
2017,04,07,16,09,12.10
2017,04,07,16,10,12.10
2017,04,07,16,11,12.10
2017,04,07,16,12,12.00
2017,04,07,16,13,12.00
2017,04,07,16,14,11.90
2017,04,07,16,15,11.90
2017,04,07,16,16,11.80
2017,04,07,16,17,11.80
2017,04,07,16,18,11.80
2017,04,07,16,19,11.80
2017,04,07,16,20,11.70
2017,04,07,16,21,11.70
2017,04,07,16,22,11.70
2017,04,07,16,23,11.70
2017,04,07,16,24,11.60
2017,04,07,16,25,11.60
2017,04,07,16,26,11.60
2017,04,07,16,27,11.50
2017,04,07,16,28,11.50
2017,04,07,16,29,11.50
2017,04,07,16,30,11.50
2017,04,07,16,31,11.50
2017,04,07,16,32,11.40
2017,04,07,16,33,11.40
2017,04,07,16,34,11.40
2017,04,07,16,35,11.40
2017,04,07,16,36,11.40
2017,04,07,16,37,11.40
2017,04,07,16,38,11.30
2017,04,07,16,39,11.30
2017,04,07,16,40,11.20
2017,04,07,16,41,11.20
2017,04,07,16,42,11.10
2017,04,07,16,43,11.10
2017,04,07,16,44,11.00
2017,04,07,16,45,11.00
2017,04,07,16,46,10.90
2017,04,07,16,47,10.90
2017,04,07,16,48,10.90
2017,04,07,16,49,10.80
2017,04,07,16,50,10.80
2017,04,07,16,51,10.80
2017,04,07,16,52,10.80
2017,04,07,16,53,10.80
2017,04,07,16,54,10.80
2017,04,07,16,55,10.80
2017,04,07,16,56,10.80
2017,04,07,16,57,10.80
2017,04,07,16,58,10.80
2017,04,07,16,59,10.80
2017,04,07,17,00,10.80
2017,04,07,17,01,10.70
2017,04,07,17,02,10.70
2017,04,07,17,03,10.70
2017,04,07,17,04,10.70
2017,04,07,17,05,10.60
2017,04,07,17,06,10.60
2017,04,07,17,07,10.60
2017,04,07,17,08,10.60
2017,04,07,17,09,10.60
2017,04,07,17,10,10.60
2017,04,07,17,11,10.60
2017,04,07,17,12,10.60
2017,04,07,17,13,10.50
2017,04,07,17,14,10.50
2017,04,07,17,15,10.50
2017,04,07,17,16,10.50
2017,04,07,17,17,10.50
2017,04,07,17,18,10.50
2017,04,07,17,19,10.50
2017,04,07,17,20,10.50
2017,04,07,17,21,10.50
2017,04,07,17,22,10.50
2017,04,07,17,23,10.60
2017,04,07,17,24,10.60
2017,04,07,17,25,10.60
2017,04,07,17,26,10.60
2017,04,07,17,27,10.60
2017,04,07,17,28,10.60
2017,04,07,17,29,10.60
2017,04,07,17,30,10.60
2017,04,07,17,31,10.60
2017,04,07,17,32,10.50
2017,04,07,17,33,10.50
2017,04,07,17,34,10.50
2017,04,07,17,35,10.40
2017,04,07,17,36,10.40
2017,04,07,17,37,10.30
2017,04,07,17,38,10.30
2017,04,07,17,39,10.20